• In Hungary
  • List of Countries
  • For 7 days
  • Water Temperature
  • Satellite Maps
  • Weather Map
  • News
  • Weather Widgets
  • user-avatar
    Login

    Hourly Weather Wunstorf

    Today, 17 August, Friday

    Time Temperature Precipitation Wind Pressure Humidity
    00:00 +19°C° 0 mm 2 mps 756 mmHg 77%
    01:00 +19°C° 0 mm 1 mps 756 mmHg 81%
    02:00 +19°C° 0 mm 1 mps 756 mmHg 83%
    03:00 +19°C° 0 mm 1 mps 756 mmHg 85%
    04:00 +18°C° 0 mm 1 mps 756 mmHg 88%
    05:00 +18°C° 0 mm 2 mps 757 mmHg 85%
    06:00 +18°C° 0 mm 2 mps 757 mmHg 82%
    07:00 +19°C° 0 mm 2 mps 757 mmHg 80%
    08:00 +20°C° 0.2 mm 2 mps 757 mmHg 75%
    09:00 +22°C° 0.2 mm 3 mps 757 mmHg 70%
    10:00 +24°C° 0.2 mm 3 mps 758 mmHg 66%
    11:00 +24°C° 0.2 mm 3 mps 758 mmHg 65%
    12:00 +23°C° 0.2 mm 4 mps 758 mmHg 64%
    13:00 +23°C° 0.2 mm 4 mps 757 mmHg 62%
    14:00 +23°C° 0.1 mm 4 mps 758 mmHg 63%
    15:00 +23°C° 0.1 mm 4 mps 758 mmHg 63%
    16:00 +23°C° 0.1 mm 4 mps 758 mmHg 64%
    17:00 +22°C° 0.1 mm 3 mps 758 mmHg 66%
    18:00 +21°C° 0.1 mm 3 mps 758 mmHg 68%
    19:00 +20°C° 0.1 mm 2 mps 759 mmHg 71%
    20:00 +19°C° 0 mm 2 mps 759 mmHg 75%
    21:00 +18°C° 0 mm 2 mps 760 mmHg 79%
    22:00 +17°C° 0 mm 2 mps 760 mmHg 83%
    23:00 +16°C° 0 mm 1 mps 760 mmHg 84%

    Tomorrow, 18 August, Saturday

    Time Temperature Precipitation Wind Pressure Humidity
    00:00 +15°C° 0 mm 1 mps 761 mmHg 85%
    01:00 +14°C° 0 mm 0 mps 761 mmHg 86%
    02:00 +14°C° 0 mm 0 mps 761 mmHg 87%
    03:00 +14°C° 0 mm 1 mps 761 mmHg 87%
    04:00 +14°C° 0 mm 1 mps 761 mmHg 87%
    05:00 +15°C° 0 mm 1 mps 761 mmHg 84%
    06:00 +16°C° 0 mm 1 mps 761 mmHg 81%
    07:00 +18°C° 0 mm 1 mps 761 mmHg 77%
    08:00 +18°C° 0 mm 2 mps 762 mmHg 69%
    09:00 +20°C° 0 mm 2 mps 762 mmHg 60%
    10:00 +22°C° 0 mm 3 mps 762 mmHg 51%
    11:00 +24°C° 0 mm 3 mps 761 mmHg 46%
    12:00 +25°C° 0 mm 3 mps 761 mmHg 41%
    13:00 +26°C° 0 mm 3 mps 761 mmHg 36%
    14:00 +27°C° 0 mm 4 mps 761 mmHg 36%
    15:00 +27°C° 0 mm 4 mps 760 mmHg 36%
    16:00 +27°C° 0 mm 4 mps 760 mmHg 35%
    17:00 +26°C° 0 mm 3 mps 760 mmHg 41%
    18:00 +24°C° 0 mm 3 mps 761 mmHg 47%
    19:00 +23°C° 0 mm 2 mps 761 mmHg 53%
    20:00 +21°C° 0 mm 2 mps 761 mmHg 58%
    21:00 +20°C° 0 mm 2 mps 762 mmHg 64%
    22:00 +19°C° 0 mm 1 mps 762 mmHg 69%
    23:00 +19°C° 0 mm 1 mps 762 mmHg 74%

    Day after tomorrow, 19 August, Sunday

    Time Temperature Precipitation Wind Pressure Humidity
    00:00 +18°C° 0 mm 1 mps 762 mmHg 79%
    01:00 +16°C° 0 mm 1 mps 762 mmHg 84%
    02:00 +16°C° 0 mm 1 mps 762 mmHg 86%
    03:00 +16°C° 0 mm 1 mps 762 mmHg 88%
    04:00 +15°C° 0 mm 1 mps 762 mmHg 91%
    05:00 +16°C° 0 mm 1 mps 762 mmHg 88%
    06:00 +18°C° 0 mm 1 mps 762 mmHg 85%
    07:00 +19°C° 0 mm 1 mps 762 mmHg 82%
    08:00 +19°C° 0 mm 2 mps 762 mmHg 74%
    09:00 +21°C° 0 mm 2 mps 762 mmHg 67%
    10:00 +24°C° 0 mm 3 mps 762 mmHg 59%
    11:00 +25°C° 0 mm 3 mps 762 mmHg 55%
    12:00 +26°C° 0 mm 3 mps 762 mmHg 51%
    13:00 +27°C° 0 mm 3 mps 761 mmHg 47%
    14:00 +27°C° 0 mm 3 mps 761 mmHg 46%
    15:00 +28°C° 0 mm 3 mps 761 mmHg 45%
    16:00 +28°C° 0 mm 2 mps 761 mmHg 43%
    17:00 +27°C° 0 mm 2 mps 760 mmHg 48%
    18:00 +26°C° 0 mm 2 mps 760 mmHg 52%
    19:00 +25°C° 0 mm 1 mps 760 mmHg 56%
    20:00 +24°C° 0 mm 1 mps 760 mmHg 60%
    21:00 +23°C° 0 mm 1 mps 760 mmHg 64%
    22:00 +22°C° 0 mm 1 mps 761 mmHg 68%
    23:00 +21°C° 0 mm 1 mps 760 mmHg 72%

    20 August, Monday

    Time Temperature Precipitation Wind Pressure Humidity
    00:00 +20°C° 0 mm 1 mps 760 mmHg 75%
    01:00 +20°C° 0 mm 1 mps 760 mmHg 78%
    02:00 +19°C° 0 mm 1 mps 760 mmHg 79%
    03:00 +19°C° 0 mm 1 mps 759 mmHg 80%
    04:00 +18°C° 0 mm 2 mps 759 mmHg 81%
    05:00 +19°C° 0 mm 2 mps 759 mmHg 79%
    06:00 +19°C° 0 mm 2 mps 759 mmHg 77%
    07:00 +20°C° 0 mm 2 mps 759 mmHg 75%
    08:00 +21°C° 0 mm 3 mps 759 mmHg 69%
    09:00 +24°C° 0 mm 3 mps 759 mmHg 63%
    10:00 +26°C° 0 mm 4 mps 759 mmHg 57%
    11:00 +26°C° 0 mm 4 mps 759 mmHg 56%
    12:00 +27°C° 0 mm 4 mps 759 mmHg 55%
    13:00 +27°C° 0 mm 4 mps 759 mmHg 54%
    14:00 +27°C° 0.1 mm 4 mps 759 mmHg 56%
    15:00 +26°C° 0.1 mm 4 mps 759 mmHg 57%
    16:00 +26°C° 0.1 mm 4 mps 759 mmHg 59%
    17:00 +25°C° 0 mm 3 mps 759 mmHg 63%
    18:00 +25°C° 0 mm 3 mps 759 mmHg 68%
    19:00 +24°C° 0 mm 2 mps 759 mmHg 72%
    20:00 +23°C° 0 mm 2 mps 759 mmHg 77%
    21:00 +20°C° 0 mm 2 mps 759 mmHg 83%
    22:00 +19°C° 0 mm 2 mps 760 mmHg 88%
    23:00 +19°C° 0 mm 2 mps 760 mmHg 90%

    21 August, Tuesday

    Time Temperature Precipitation Wind Pressure Humidity
    00:00 +18°C° 0 mm 2 mps 760 mmHg 93%
    01:00 +18°C° 0 mm 2 mps 760 mmHg 95%
    02:00 +19°C° 0 mm 1 mps 760 mmHg 96%
    03:00 +18°C° 0 mm 1 mps 760 mmHg 97%
    04:00 +18°C° 0 mm 1 mps 760 mmHg 97%
    05:00 +17°C° 0 mm 2 mps 760 mmHg 95%
    06:00 +18°C° 0 mm 2 mps 761 mmHg 93%
    07:00 +18°C° 0 mm 2 mps 761 mmHg 91%
    08:00 +19°C° 0 mm 2 mps 761 mmHg 87%
    09:00 +20°C° 0 mm 2 mps 761 mmHg 82%
    10:00 +20°C° 0 mm 2 mps 761 mmHg 78%
    11:00 +21°C° 0 mm 2 mps 761 mmHg 74%
    12:00 +23°C° 0 mm 2 mps 761 mmHg 70%
    13:00 +24°C° 0 mm 2 mps 761 mmHg 66%
    14:00 +25°C° 0 mm 2 mps 760 mmHg 61%
    15:00 +26°C° 0 mm 2 mps 760 mmHg 56%
    16:00 +27°C° 0 mm 2 mps 760 mmHg 52%
    17:00 +26°C° 0 mm 1 mps 760 mmHg 55%
    18:00 +25°C° 0 mm 1 mps 759 mmHg 59%
    19:00 +24°C° 0 mm 1 mps 759 mmHg 63%
    20:00 +22°C° 0 mm 1 mps 759 mmHg 67%
    21:00 +21°C° 0 mm 1 mps 760 mmHg 70%
    22:00 +20°C° 0 mm 1 mps 760 mmHg 74%
    23:00 +20°C° 0 mm 1 mps 760 mmHg 76%

    22 August, Wednesday

    Time Temperature Precipitation Wind Pressure Humidity
    00:00 +19°C° 0 mm 1 mps 759 mmHg 77%
    01:00 +19°C° 0 mm 1 mps 759 mmHg 79%
    02:00 +19°C° 0 mm 1 mps 759 mmHg 80%
    03:00 +19°C° 0 mm 1 mps 759 mmHg 81%
    04:00 +17°C° 0 mm 2 mps 759 mmHg 82%
    05:00 +18°C° 0 mm 2 mps 758 mmHg 80%
    06:00 +19°C° 0 mm 2 mps 758 mmHg 77%
    07:00 +20°C° 0 mm 2 mps 758 mmHg 74%
    08:00 +23°C° 0 mm 2 mps 758 mmHg 66%
    09:00 +25°C° 0 mm 3 mps 758 mmHg 58%
    10:00 +28°C° 0 mm 3 mps 758 mmHg 50%
    11:00 +29°C° 0 mm 3 mps 758 mmHg 47%
    12:00 +29°C° 0 mm 4 mps 758 mmHg 44%
    13:00 +30°C° 0 mm 4 mps 757 mmHg 41%
    14:00 +30°C° 0.1 mm 4 mps 757 mmHg 44%
    15:00 +30°C° 0.1 mm 4 mps 757 mmHg 46%
    16:00 +29°C° 0.1 mm 4 mps 757 mmHg 48%
    17:00 +28°C° 0.2 mm 4 mps 757 mmHg 57%
    18:00 +26°C° 0.2 mm 3 mps 757 mmHg 66%
    19:00 +24°C° 0.2 mm 3 mps 757 mmHg 75%
    20:00 +22°C° 0 mm 3 mps 758 mmHg 80%
    21:00 +20°C° 0 mm 2 mps 758 mmHg 86%
    22:00 +19°C° 0 mm 2 mps 759 mmHg 91%
    23:00 +18°C° 0 mm 2 mps 759 mmHg 92%
    Show more